Location: Wildcat Hills Observatory
(41.6350°N, 103.6812°W)
Time: 23:19:50
(UTC-06:00)

Daily predictions for brighter satellites

Satellite Brightness Start Highest point End
(mag) Time Altitude Azimuth Time Altitude Azimuth Time Altitude Azimuth
ERS-2 2.2 21:02:34 10° SSE 21:06:14 89° WSW 21:09:55 10° NNW
Resurs 01 Rocket 1.9 21:01:52 10° S 21:06:16 70° WSW 21:10:43 10° NNW
USA 215 3.4 20:59:55 10° SE 21:06:29 88° SW 21:13:05 10° NW
Cosmos 921 Rocket 4.0 21:05:02 10° N 21:09:08 34° ENE 21:13:15 10° SE
Cosmos 1048 Rocket 4.1 21:03:52 10° SSW 21:09:11 85° ESE 21:14:36 10° NNE
OAO 3 Rocket 3.9 21:05:44 10° WSW 21:10:20 39° S 21:14:54 10° ESE
Cosmos 1825 Rocket 3.6 21:11:45 10° S 21:16:12 89° WSW 21:20:41 10° N
SL-8 R/B 3.7 21:13:20 10° SW 21:18:08 75° SSE 21:22:59 10° ENE
Cosmos 1315 Rocket 2.9 21:15:37 10° S 21:19:40 89° E 21:23:48 10° N
Cosmos 2278 Rocket 3.5 21:19:40 10° SE 21:23:42 20° E 21:27:45 10° NE
ARGOS 3.3 21:18:31 10° SSE 21:23:50 62° ENE 21:29:13 10° N
Spot 2 Rocket 4.0 21:24:43 10° S 21:29:42 60° W 21:34:43 10° NNW
MetOp-A 4.2 21:24:35 10° SSE 21:29:53 67° ENE 21:35:13 10° N
Cosmos 1844 Rocket 2.7 21:34:14 10° SSW 21:39:54 88° ESE 21:45:36 10° NNE
COSMOS 2406 3.5 21:36:02 10° NNW 21:41:44 58° ENE 21:46:26 15° SE
SL-08 RB Rocket 3.8 21:39:23 11° SSE 21:43:46 73° ENE 21:48:26 10° N
KORONAS-FOTON 4.2 21:40:26 11° SSE 21:44:01 47° E 21:47:48 10° NNE
Cosmos 1844 3.7 21:40:48 10° SSW 21:46:28 77° ESE 21:52:16 10° NNE
Cosmos 1238 Rocket 3.0 21:44:27 10° SSW 21:47:18 48° W 21:50:18 10° N
SPOT 5 3.7 21:45:39 15° SE 21:49:29 41° ENE 21:54:25 10° N
Cosmos 1110 Rocket 4.0 21:44:20 10° NNW 21:49:31 82° ENE 21:53:48 15° SSE
Cosmos 2084 3.9 21:46:02 10° NW 21:49:44 45° WSW 21:52:41 15° S
Cosmos 1346 Rocket 3.1 21:46:45 10° NNW 21:50:45 69° W 21:54:36 11° S
Iridium 18 4.4 21:50:55 13° S 21:53:48 78° E 21:57:41 10° N
Cosmos-2242 3.3 21:49:31 10° NNW 21:53:55 69° W 21:58:12 10° S
ATLAS 3B R/B 2.8 21:48:25 10° NNW 21:55:02 66° NE 22:00:08 17° SE
Lacrosse 5 3.4 21:50:23 10° WSW 21:55:10 40° NW 21:59:56 10° NE
ATLAS 5 CENTAUR R/B 2.9 21:55:48 19° SE 21:57:02 21° ESE 22:00:34 10° ENE
USA 238 DEB 3.8 21:52:14 10° NW 21:59:26 90° WSW 22:05:06 18° SSE
USA 238 3.8 21:52:21 10° NW 21:59:32 90° NE 22:05:12 18° SSE
Cosmos 1331 Rocket 4.0 21:56:38 10° NNW 22:01:52 88° W 22:05:51 18° SSE
Cosmos 494 Rocket 4.1 21:58:23 10° SSW 22:03:37 79° WNW 22:08:55 10° NNE
H-2A R/B 2.3 21:59:23 12° S 22:04:18 71° WSW 22:09:44 10° NNW
SPOT 1/Viking Rocket 3.8 22:00:46 19° SE 22:04:18 54° ENE 22:09:19 10° N
BREEZE-M DEB (TANK) 3.7 21:55:06 10° WSW 22:04:31 67° NNW 22:07:39 10° NE
S3M 4.0 22:00:20 10° S 22:06:38 71° E 22:13:00 10° NNE
Cosmos 1626 3.8 22:06:15 17° E 22:06:49 18° E 22:09:24 10° NE
Helios 1A 3.3 22:05:04 22° SE 22:07:29 51° ENE 22:11:35 10° N
NOSS 2-2 (C) 4.5 22:07:58 22° ESE 22:08:07 22° ESE 22:11:18 10° ENE
Helios 1B rocket 3.3 22:04:50 10° NNE 22:08:32 32° E 22:10:01 24° SE
Cosmos 1908 3.6 22:06:33 10° NNW 22:10:23 61° W 22:13:18 16° S
NOSS 3-2 (A) 4.1 22:03:26 10° NNW 22:11:00 74° NE 22:17:06 20° SE
Cosmos 2082 Rocket 3.7 22:06:24 10° N 22:11:02 25° NE 22:14:50 13° E
Cosmos 1833 Rocket 4.1 22:06:59 10° N 22:11:43 27° NE 22:15:19 15° ESE
Cosmos 1842 Rocket 3.5 22:09:31 10° N 22:13:52 69° E 22:16:22 25° SSE
Cosmos 1340 2.6 22:11:31 10° N 22:15:19 89° E 22:17:22 26° S
CSL-04 DEB 4.4 22:16:59 22° S 22:19:23 71° WSW 22:23:20 10° NNW
CZ-2C R/B 3.9 22:15:25 10° NE 22:19:39 23° E 22:21:06 21° ESE
Landsat 7 3.9 22:21:20 26° SSE 22:23:58 66° ENE 22:28:42 10° N
ATLAS 2AS CENTAUR R/B 3.9 22:18:50 10° SW 22:26:31 54° NW 22:34:29 10° NNE
Cosmos 1553 Rocket 4.2 22:23:14 10° SSW 22:29:15 68° W 22:35:19 10° N
Cosmos 1674 4.4 22:26:21 10° SW 22:29:47 32° WNW 22:33:16 10° NNW
ERS-1 Rocket 3.5 22:26:45 17° S 22:30:29 54° W 22:35:26 10° NNW
Cosmos 1302 Rocket 4.0 22:25:37 10° NNW 22:30:56 87° WSW 22:33:50 27° SSE
DMSP B5D2-2 4.2 22:27:08 10° N 22:32:23 74° WNW 22:37:28 11° SSW
Cosmos 1455 4.2 22:31:13 10° NE 22:33:28 15° ENE 22:34:03 15° E
Cosmos 1300 2.6 22:31:20 10° N 22:35:10 77° E 22:36:28 40° SSE
NOSS 3-2 (C) 4.1 22:29:19 10° NNW 22:36:56 78° NE 22:42:13 25° SE
Cosmos 1726 3.4 22:36:10 10° NNW 22:39:38 36° W 22:41:48 19° SSW
RESURS DK-1 3.4 22:41:55 28° E 22:41:55 28° E 22:45:13 10° NE
Cosmos 2251 Rocket 3.8 22:37:56 10° SSW 22:43:15 70° WNW 22:48:35 10° NNE
Terra 1.9 22:41:23 34° SSE 22:43:24 68° ENE 22:48:08 10° N
Cosmos 2221 2.4 22:39:12 10° N 22:43:32 76° E 22:45:03 39° SSE
Cosmos 883 Rocket 4.4 22:39:52 23° S 22:43:51 76° E 22:50:07 10° N
Okean 3 Rocket 4.0 22:44:14 37° SE 22:45:17 45° E 22:49:28 10° NNE
Cosmos 1386 Rocket 4.5 22:42:11 10° N 22:48:16 76° W 22:51:53 25° S
Meteor 1-29 2.8 22:45:36 10° NNE 22:49:00 72° E 22:49:26 61° SSE
Cosmos 2315 Rocket 4.1 22:47:00 28° SSE 22:50:23 65° E 22:56:40 10° NNE
OAO 3 Rocket 4.3 22:49:10 10° WSW 22:53:18 27° SSW 22:53:18 27° SSW
Cosmos 1328 3.7 22:57:00 53° SSE 22:57:46 70° E 23:01:43 10° NNE
Cosmos 1461 3.8 22:54:31 10° SW 22:59:05 57° NW 23:03:48 10° NNE
NOSS 2-2 (E) 3.3 22:59:02 26° SW 23:01:09 85° WNW 23:05:34 10° NE
CENTAUR R/B 3.4 22:54:11 10° NNW 23:02:03 62° NE 23:07:22 25° ESE
CZ-2C R/B 3.3 23:00:37 35° SSE 23:03:17 88° ENE 23:09:04 10° NNW
NOSS 3-4 (A) 3.6 22:57:29 10° SW 23:03:38 75° NW 23:10:05 10° NNE
NOSS 3-4 (C) 3.6 22:57:34 10° SW 23:03:43 76° NW 23:10:11 10° NNE
Meteor 1-11 4.5 23:03:11 37° SSE 23:05:12 55° E 23:10:51 10° NNE
Cosmos 2278 Rocket 2.8 23:01:43 10° SW 23:07:17 57° WNW 23:12:53 10° NNE
IGS 5A 4.1 23:09:47 36° SSW 23:11:01 48° W 23:15:04 10° NNW
Spot 4 4.3 23:12:13 39° ESE 23:13:32 51° ENE 23:18:15 10° N
BREEZE-M DEB (TANK) 3.7 23:04:49 10° SW 23:13:55 65° SSE 23:17:41 10° ENE
Cosmos 1441 Rocket 4.5 23:11:21 10° NNE 23:14:39 28° ENE 23:14:40 28° ENE
Cosmos 407 Rocket 4.2 23:15:51 33° ESE 23:16:07 34° E 23:20:44 10° NE
Nimbus 7 Rocket 4.5 23:15:45 10° NNE 23:21:47 79° WNW 23:25:12 28° SSW
Cosmos 405 Rocket 3.9 23:23:48 10° NNE 23:26:54 29° ENE 23:26:54 29° ENE
Cosmos 1190 Rocket 4.3 23:29:35 45° ESE 23:30:06 47° ESE 23:35:05 10° NNE
NOSS 2-2 (D) 4.2 23:29:52 22° WSW 23:32:08 50° NW 23:36:26 10° NNE
Cosmos 1076 Rocket 4.5 23:32:29 30° SW 23:33:58 41° WNW 23:37:59 10° N
SL-27 R/B 2.6 23:30:28 10° NNW 23:33:50 73° NW 23:33:50 73° NW
Cosmos 2369 Rocket 3.8 23:36:42 20° E 23:36:42 20° E 23:40:19 10° NE
Meteor 2-2 Rocket 4.3 23:33:48 10° NNW 23:39:25 71° W 23:41:08 45° SSW
Cosmos 1151 Rocket 3.7 23:35:30 10° N 23:39:31 38° ENE 23:39:40 38° E
ATLAS 5 CENTAUR R/B 2.7 23:37:14 11° WSW 23:41:16 44° NW 23:46:02 10° NNE
Cosmos 1626 3.8 23:40:50 23° WSW 23:41:56 27° WNW 23:45:08 10° NNW
ALOS 2 3.7 23:43:56 31° E 23:44:28 32° ENE 23:48:22 10° N
ATLAS 3B R/B 4.0 23:40:07 10° WNW 23:45:07 23° WSW 23:47:23 19° SW
Cosmos 1408 Rocket 3.5 23:44:44 69° SSW 23:45:14 83° W 23:49:44 10° N
Mayak -0.1 23:41:40 10° NNE 23:44:50 31° ENE 23:44:50 31° ENE
Nadezhda 1 Rocket 4.3 23:44:02 43° SE 23:45:47 56° E 23:52:01 10° NNE
Cosmos 1766 Rocket 3.8 23:46:05 53° SW 23:46:53 64° W 23:51:20 10° N
CZ-4 R/B 3.9 23:42:23 10° NNE 23:47:06 57° E 23:47:19 56° ESE
Cosmos 1703 3.7 23:47:40 51° W 23:47:56 52° W 23:51:46 10° N
Cosmos 2297 4.0 23:48:47 30° SW 23:51:39 65° WNW 23:57:21 10° NNE
Cosmos 2058 2.8 23:54:05 86° WNW 23:54:05 86° WNW 23:58:14 10° N
Cosmos 371 Rocket 3.9 23:49:25 10° N 23:54:06 44° ENE 23:54:57 40° E
Cosmos 2151 2.9 23:55:07 76° E 23:55:07 76° E 23:59:17 10° N
